Location: Ballingbuur
(53.0000°N, 5.7667°E)
Time: 07:01:40
(UTC+00:00)

H-2A R/B - Pass Details

Date: 29 November 2020
Orbit: 529 x 651 km, 98.3° (Epoch: 23 January)

Event Time Altitude Azimuth Distance (km) Brightness Sun altitude
Rises 06:30:38 0° 10° (N) 2,724 5.7 -7.8°
Reaches altitude 10° 06:32:51 10° 3° (N) 1,813 4.7 -7.5°
Maximum altitude 06:36:31 41° 293° (WNW) 793 2.7 -7.0°
Drops below altitude 10° 06:40:06 10° 223° (SW) 1,778 4.8 -6.6°
Sets 06:42:16 0° 216° (SW) 2,663 5.7 -6.3°
